STARLINK-3196 (49768 NORAD) Tracking and Keplerian Element Data

This shows tracking and keplerian element data for the satellite.

Feedback or suggestion? Click here.




ElementValue
Catalog49768
NameSTARLINK-3196
Epoch Orbit130
Epoch Day140.58334491
Epoch Year2022
RAAN255.0637
Inclination53.2175
Eccentricity0.0001883
Argument of Perigee49.1034
Mean Anonmoly182.3175
Mean Motion15.08885383
Decay Rate-0.00060662
L11 49768U 21115AW 22140.58334491 -.00060662 00000+0 -38209-2 0 9995
L22 49768 53.2175 255.0637 0001883 49.1034 182.3175 15.08885383 1308

Live tracking and technical data element details for STARLINK-3196 (NORAD 49768). STARLINK-3196 can be tracked NOW for your location showing map with azimuth and elevation plus other details from your city location.

Track the satellite on the map from your city or location and see movement details for azimuth, elevation, latitude, longitude, range, height, and movement on the map or in text.







IsCatalogInMostPopularTable: catalog: 49768, numindb: 22
Update: records affected: 1



GetName: 49768 STARLINK-3196

Hit Count: updated at: Mon, 23 May 2022 21:29:52 GMT